STARLINK-4108 (52834 NORAD) Tracking and Keplerian Element Data

This shows tracking and keplerian element data for the satellite.

Feedback or suggestion? Click here.




ElementValue
Catalog52834
NameSTARLINK-4108
Epoch Orbit1564
Epoch Day270.25001157
Epoch Year2022
RAAN287.9627
Inclination53.2148
Eccentricity0.0001709
Argument of Perigee51.7391
Mean Anonmoly186.6307
Mean Motion15.08833044
Decay Rate-0.00018882
L11 52834U 22062E 22270.25001157 -.00018882 00000+0 -11716-2 0 9994
L22 52834 53.2148 287.9627 0001709 51.7391 186.6307 15.08833044 15644

Live tracking and technical data element details for STARLINK-4108 (NORAD 52834). STARLINK-4108 can be tracked NOW for your location showing map with azimuth and elevation plus other details from your city location.

Track the satellite on the map from your city or location and see movement details for azimuth, elevation, latitude, longitude, range, height, and movement on the map or in text.







IsCatalogInMostPopularTable: catalog: 52834, numindb: 8
Update: records affected: 1



GetName: 52834 STARLINK-4108

Hit Count: updated at: Thu, 06 Oct 2022 03:37:12 GMT